History for Miami, FL

Saturday, December 8, 2012 — View Current Conditions

Jump to Data:

Date:
Airport Code:
Recently Viewed Airport Codes: KMIA
Daily Summary
  Actual Average Record
Temperature
Mean Temperature 77°F 72°F  
Max Temperature 82°F 79°F 86°F (1942)
Min Temperature 71°F 65°F 38°F (1937)
Degree Days
Heating Degree Days 0 1  
Month to date heating degree days 0 4  
Since 1 July heating degree days 1 7  
Cooling Degree Days 12 7  
Month to date cooling degree days 78 61  
Year to date cooling degree days 4518 4433  
Growing Degree Days 26 (Base 50)    
Moisture
Dew Point 70°F    
Average Humidity 80    
Maximum Humidity 90    
Minimum Humidity 69    
Precipitation
Precipitation 0.02 in 0.07 in 1.98 in (1987)
Month to date precipitation 0.24 0.56  
Year to date precipitation 86.67 60.42  
Snow
Snow 0.00 in in in ()
Month to date snowfall 0.0  
Since 1 July snowfall 0.0  
Snow Depth 0.00 in    
Sea Level Pressure
Sea Level Pressure 30.00 in    
Wind
Wind Speed 8 mph (ESE)    
Max Wind Speed 15 mph    
Max Gust Speed 21 mph    
Visibility 10 miles    
Events      
T = Trace of Precipitation, MM = Missing Value Source: NWS Daily Summary

Show full METARS

(help) - Comma Delimited File

Hourly Observations

Time(EST) Temperature Dew Point Humidity Sea Level Pressure Visibility Wind Direction Wind Speed Gust Speed Precipitation Events Conditions
12:53 AM 72.0°F 66.9°F 84% 29.98 in 10.0 miles East 5.8 mph - N/A   Scattered Clouds
1:53 AM 73.0°F 68.0°F 84% 29.97 in 10.0 miles ESE 5.8 mph - N/A   Scattered Clouds
2:53 AM 71.1°F 66.9°F 87% 29.96 in 10.0 miles ESE 4.6 mph - N/A   Scattered Clouds
3:53 AM 72.0°F 68.0°F 87% 29.97 in 10.0 miles East 3.5 mph - N/A   Scattered Clouds
4:53 AM 72.0°F 68.0°F 87% 29.97 in 10.0 miles Calm Calm - N/A   Scattered Clouds
5:53 AM 71.6°F 68.0°F 88% 29.99 in 10.0 miles Calm Calm - N/A   Scattered Clouds
6:53 AM 73.0°F 69.1°F 87% 29.99 in 10.0 miles NE 5.8 mph - N/A   Mostly Cloudy
7:53 AM 73.9°F 70.0°F 87% 30.01 in 10.0 miles Calm Calm - N/A   Mostly Cloudy
8:53 AM 77.0°F 71.1°F 82% 30.03 in 10.0 miles East 9.2 mph - 0.02 in   Mostly Cloudy
9:53 AM 80.1°F 70.0°F 71% 30.04 in 10.0 miles East 12.7 mph - N/A   Mostly Cloudy
10:53 AM 80.1°F 70.0°F 71% 30.03 in 10.0 miles ESE 11.5 mph - 0.00 in   Mostly Cloudy
11:53 AM 80.1°F 69.1°F 69% 30.01 in 10.0 miles East 12.7 mph - N/A   Mostly Cloudy
12:53 PM 80.1°F 70.0°F 71% 29.98 in 10.0 miles SE 11.5 mph - N/A   Mostly Cloudy
1:53 PM 79.0°F 69.1°F 72% 29.97 in 10.0 miles ESE 11.5 mph - N/A   Mostly Cloudy
2:53 PM 79.0°F 70.0°F 74% 29.98 in 10.0 miles ESE 11.5 mph - N/A   Mostly Cloudy
3:53 PM 79.0°F 71.1°F 77% 29.98 in 10.0 miles ESE 9.2 mph - N/A   Mostly Cloudy
4:53 PM 78.1°F 71.1°F 79% 29.98 in 10.0 miles ESE 11.5 mph - N/A   Mostly Cloudy
5:53 PM 77.0°F 71.1°F 82% 30.00 in 10.0 miles ESE 10.4 mph - N/A   Mostly Cloudy
6:53 PM 77.0°F 71.1°F 82% 30.01 in 10.0 miles ESE 8.1 mph - N/A   Mostly Cloudy
7:53 PM 75.9°F 72.0°F 87% 30.02 in 10.0 miles East 6.9 mph - N/A   Mostly Cloudy
8:53 PM 75.9°F 72.0°F 87% 30.04 in 10.0 miles ESE 8.1 mph - N/A   Scattered Clouds
9:53 PM 75.9°F 72.0°F 87% 30.04 in 10.0 miles ESE 10.4 mph - N/A   Scattered Clouds
10:53 PM 75.2°F 71.6°F 89% 30.04 in 10.0 miles ESE 5.8 mph - N/A   Partly Cloudy
11:53 PM 75.0°F 72.0°F 90% 30.04 in 10.0 miles ESE 4.6 mph - N/A   Partly Cloudy